164  
ASUS42 KCAE 220310  
RWRCAE  
REGIONAL WEATHER ROUNDUP  
NATIONAL WEATHER SERVICE COLUMBIA SC  
1100 PM EDT TUE MAY 21 2019  
 
NOTE: "FAIR" INDICATES FEW OR NO CLOUDS BELOW 12,000 FEET WITH NO  
SIGNIFICANT WEATHER AND/OR S TO VISIBILITY
.  
 
NOT ALL STATIONS ARE QUALITY CONTROLLED BY THE NATIONAL  
WEATHER SERVICE. USE DATA WITH CAUTION...ESPECIALLY  
DEWPOINT OBSERVATIONS.  
 
SCZ001>056-GAZ040-063>065-077-220400-   
..UPSTATE SOUTH CAROLINA
 
 
 
CITY SKY/WX TMP DP RH WIND PRES REMARKS
 
ANDERSON FAIR 71 61 70 NE3 30.00R  
LIBERTY FAIR 65 65 100 E6 30.01S  
SPARTANBURG FAIR 72 63 73 CALM 30.02R  
CLEMSON FAIR 73 64 73 CALM 30.02R  
GREENVILLE FAIR 77 61 57 CALM 30.03R  
GREENWOOD FAIR 69 65 86 N3 30.02R  
GREER FAIR 72 61 68 SE5 30.03R  
ROCK HILL FAIR 68 62 81 CALM 30.03R  
CHESTER FAIR 72 61 68 CALM 30.03R  
LAURENS FAIR 70 64 83 CALM 30.02R  
 
   
..CENTRAL SOUTH CAROLINA
 
 
 
CITY SKY/WX TMP DP RH WIND PRES REMARKS
 
COLUMBIA APT FAIR 77 64 64 CALM 29.98R  
COLUMBIA OWENS FAIR 78 65 63 CALM 29.99R  
MCENTIRE ANGB FAIR 72 67 85 CALM 29.99R  
ORANGEBURG FAIR 77 64 64 SE5 29.99R  
SUMTER SHAW FAIR 73 62 68 CALM 29.99R  
NEWBERRY FAIR 75 64 69 E3 30.03R  
AIKEN FAIR 72 59 64 CALM 30.02R  
BARNWELL FAIR 79 64 61 CALM 29.99R  
MANNING FAIR 72 68 88 CALM 30.00R  
CAMDEN FAIR 77 64 65 NE3 30.01R  
LANCASTER FAIR 68 68 100 NE3 30.03R  
WINNSBORO FAIR 77 63 61 NE7 30.01R  
 
   
..EASTERN AND COASTAL SOUTH CAROLINA
 
 
 
CITY SKY/WX TMP DP RH WIND PRES REMARKS
 
MYRTLE BEACH FAIR 77 75 93 S3 30.01R  
N MYRTLE BCH FAIR 77 75 93 S3 30.01R  
CONWAY FAIR 73 70 88 CALM 30.01R  
MARION FAIR 73 66 78 CALM 30.01R  
HARTSVILLE FAIR 75 61 60 NE6 30.00R  
FLORENCE FAIR 77 68 73 SE3 30.00R  
DARLINGTON FAIR 75 66 73 CALM 30.01R  
CHARLESTON APT FAIR 76 73 91 S6 30.00R  
MOUNT PLEASANT MOCLDY 75 75 100 CALM 30.00R  
WALTERBORO FAIR 75 68 78 CALM 30.01R  
BEAUFORT FAIR 80 75 84 S3 29.99R  
HILTON HEAD FAIR 79 73 83 VRB5 30.00R  
 
   
..EASTERN GEORGIA
 
 
 
CITY SKY/WX TMP DP RH WIND PRES REMARKS
 
AUGUSTA BUSH F FAIR 71 64 78 CALM 29.97R  
AUGUSTA DANIEL FAIR 85 54 34 NE5 29.99R  
THOMSON FAIR 70 65 84 MISG 29.99R  
CLAXTON FAIR 80 70 72 CALM 29.98R  
SYLVANIA MOCLDY 78 67 68 CALM 30.00R  
STATESBORO MOCLDY 78 65 64 CALM 29.99R  
SAVANNAH FAIR 78 73 84 SE5 29.99R  
 
   
..SOUTHERN NORTH CAROLINA
 
 
 
CITY SKY/WX TMP DP RH WIND PRES REMARKS
 
CHARLOTTE FAIR 80 59 48 VRB5 30.04R  
MONROE FAIR 71 62 73 E5 30.03R  
WADESBORO FAIR 71 63 77 CALM 30.03R  
ROCKINGHAM FAIR 77 57 50 CALM 30.03R  
RUTHERFORDTON FAIR 68 63 83 CALM 30.05R  
ASHEVILLE FAIR 69 58 67 CALM 30.09R  
 

 
 
 
CLICK HERE TO GO TO PREVIOUS BULLETINS.

The Nexlab SC Page
The Nexlab GA Page Main Text Page